Location: Bratislava
(0.0000°N, 17.1167°E)
Time: 04:55:09
(UTC+01:00)

Cosmos 1943 Rocket - Pass Details

Date: 24 January 2021
Orbit: 810 x 845 km, 71.0° (Epoch: 06 March)

Event Time Altitude Azimuth Distance (km) Brightness Sun altitude
Rises 19:41:48 0° 201° (SSW) 3,327 5.9 -23.1°
Reaches altitude 10° 19:44:14 10° 204° (SSW) 2,394 5.1 -23.7°
Maximum altitude 19:49:39 66° 285° (WNW) 884 2.4 -24.9°
Enters shadow 19:51:56 35° 355° (N) 1,288 3.0 -25.5°
